FENGYUN 1C DEB, 31753

Orbit data source: Space-Track

FENGYUN 1C DEB, 31753 is space debris in SSO originally from a launch on Mon, 10 May 1999 UTC launched from the Taiyaun Space Center, China (TSC). Fengyun 1C debris stems from the Chinese weather satellite Fengyun-1C, which was intentionally destroyed by a Chinese anti-satellite missile in 2007. This event dramatically increased the amount of space debris, with thousands of trackable fragments posing hazards to satellites and human spaceflight. The Fengyun 1C debris cloud has become a focal point in discussions about space sustainability and the need for international regulations to prevent the creation of new debris.

Loading next visibility...
Identifier
31753, 1999-025CFC
Orbit
SSO
Country
Flag of CNCN / PRC
Related business
Manufacturer
Unknown
Mission
Spacecraft
Bus & Motor
Unknown
Mass
Unknown
Launch date (UTC)
1999-05-10 (27 years ago)
Launch vehicle
Unknown
Launch site
Taiyaun Space Center, China (TSC)
Object type
Payload
Rocket body
Debris
Shape & HBR
Unknown shape, 0.1 m
Radar Cross Section
Medium (>0.1 m² and <1 m²)

Expand to show TLE details & history
Last TLE update: 12 hours ago

TLE from 12 hours ago
0 FENGYUN 1C DEB
1 31753U 99025CFC 26254.36742779  .00000309  00000-0  14808-3 0  9994
2 31753  98.6038 284.9481 0159653 107.7479 267.0994 14.18935197998859
Epoch: 2026-09-11T08:49Z
TLE epoch observation values (Epoch: 2026-09-11T08:49:05.761Z)
Latitude
12.83584°
Longitude
160.31708°
Altitude
838.774 km
Speed
7.431 km/s
True Right ascension
18h 51m 55s
True Declination
12° 45' 45"
Sunlit
Object was in daylight at epoch
Visualization orbit readout
Latitude
Unknown
Longitude
Unknown
Altitude
Unknown
Speed
Unknown
Apparent Right ascension
Unknown
Apparent Declination
Unknown
Sunlit
N/A
Visualization observer readout
Local Sidereal Time
13:00:18
Azimuth
Unknown
Elevation
Unknown
Doppler factor
Unknown
Orbital elements
Apogee altitude
941.128 km
Perigee altitude
711.092 km
Semi-major axis
7,204.247 km
Eccentricity
0.01597
Inclination
98.6038°
RAAN
284.9481°
Arg. of periapsis
107.7479°
True anomaly
265.27441°
Mean anomaly
267.0994°
Eccentric anomaly
266.18668°
Mean motion
3.54944 °/min
Orbital period
101.42 mins
BSTAR
0.00014808
Loading maneuver chart data...
Computing Atmospheric mass density...
Loading historical data...
Loading historical data...
Loading historical data...
Loading historical data...
Loading historical data...
Loading historical data...
Loading historical data...

Documentation

Showing up to 5 results
|